Location: Mount Kobau Star Party
(49.1167°N, 119.7333°W)
Time: 05:33:44
(UTC-07:00)

Injun/Solrad 3 - All Passes

Search period start: 08 July 2025 00:00
Search period end: 18 July 2025 00:00
Orbit: 871 x 985 km, 66.8° (Epoch: 08 July)

Date Brightness Start Highest point End Pass type
(mag) Time Alt. Az. Time Alt. Az. Time Alt. Az.
08 Jul - 01:44:10 10° WNW 01:48:21 20° WSW 01:52:27 10° SSW visible
08 Jul - 15:08:00 10° S 15:14:08 52° ESE 15:20:10 10° NE daylight
08 Jul - 16:54:49 10° WSW 17:00:48 42° NW 17:06:42 10° NNE daylight
08 Jul - 18:44:55 10° WNW 18:49:01 18° NNW 18:53:05 10° NNE daylight
08 Jul - 20:34:30 10° NNW 20:38:07 16° N 20:41:40 10° NE daylight
08 Jul - 22:21:15 10° NNW 22:26:40 32° NE 22:31:55 10° E visible
09 Jul - 00:07:39 10° NW 00:13:41 71° WSW 00:19:30 10° SSE visible
09 Jul - 01:56:29 10° WNW 01:59:01 13° W 02:01:31 10° SW visible
09 Jul - 13:36:19 10° SE 13:39:38 15° ESE 13:42:55 10° ENE daylight
09 Jul - 15:18:47 10° SSW 15:25:08 73° ESE 15:31:21 10° NE daylight
09 Jul - 17:06:32 10° W 17:12:10 33° NW 17:17:43 10° NNE daylight
09 Jul - 18:56:59 10° NW 19:00:41 16° NNW 19:04:20 10° NNE daylight
09 Jul - 20:45:49 10° NNW 20:49:47 17° NNE 20:53:41 10° ENE daylight
09 Jul - 22:32:17 10° NNW 22:38:01 41° NE 22:43:35 10° ESE visible
10 Jul - 00:18:52 10° NW 00:24:39 49° WSW 00:30:15 10° S visible
10 Jul - 13:45:38 10° SSE 13:50:21 22° ESE 13:55:00 10° ENE daylight
10 Jul - 15:29:49 10° SW 15:36:12 82° NW 15:42:28 10° NE daylight
10 Jul - 17:18:24 10° W 17:23:36 26° NNW 17:28:44 10° NNE daylight
10 Jul - 19:08:56 10° NW 19:12:22 15° N 19:15:46 10° NNE daylight
10 Jul - 20:56:59 10° NNW 21:01:23 20° NNE 21:05:42 10° ENE daylight
10 Jul - 22:43:19 10° NNW 22:49:17 55° NE 22:55:03 10° SE visible
11 Jul - 00:30:13 10° NW 00:35:31 33° WSW 00:40:41 10° S visible
11 Jul - 13:55:38 10° S 14:01:09 32° ESE 14:06:36 10° NE daylight
11 Jul - 15:41:05 10° SW 15:47:22 61° NW 15:53:32 10° NNE daylight
11 Jul - 17:30:24 10° WNW 17:35:08 22° NNW 17:39:47 10° NNE daylight
11 Jul - 19:20:43 10° NNW 19:24:05 15° N 19:27:24 10° NE daylight
11 Jul - 21:08:05 10° NNW 21:12:55 24° NNE 21:17:40 10° E daylight
11 Jul - 22:54:23 10° NW 23:00:28 75° NE 23:06:20 10° SE visible
12 Jul - 00:41:47 10° WNW 00:46:18 23° WSW 00:50:44 10° SSW visible
12 Jul - 14:06:02 10° S 14:12:02 46° ESE 14:17:58 10° NE daylight
12 Jul - 15:52:32 10° WSW 15:58:37 46° NW 16:04:34 10° NNE daylight
12 Jul - 17:42:28 10° WNW 17:46:43 18° NNW 17:50:53 10° NNE daylight
12 Jul - 19:32:16 10° NNW 19:35:47 15° N 19:39:14 10° NE daylight
12 Jul - 21:19:08 10° NNW 21:24:24 29° NE 21:29:32 10° E daylight
12 Jul - 23:05:30 10° NW 23:11:33 79° WSW 23:17:24 10° SSE visible
13 Jul - 00:53:50 10° WNW 00:57:01 15° WSW 01:00:09 10° SW visible
13 Jul - 12:35:02 10° SE 12:37:37 13° E 12:40:12 10° ENE daylight
13 Jul - 14:16:43 10° SSW 14:23:00 65° ESE 14:29:11 10° NE daylight
13 Jul - 16:04:11 10° WSW 16:09:56 35° NW 16:15:34 10° NNE daylight
13 Jul - 17:54:33 10° NW 17:58:21 16° NNW 18:02:06 10° NNE daylight
13 Jul - 19:43:38 10° NNW 19:47:28 17° NNE 19:51:13 10° NE daylight
13 Jul - 21:30:10 10° NNW 21:35:48 37° NE 21:41:15 10° ESE visible
13 Jul - 23:16:41 10° NW 23:22:32 55° WSW 23:28:13 10° SSE visible
14 Jul - 12:43:59 10° SSE 12:48:19 20° ESE 12:52:37 10° ENE daylight
14 Jul - 14:27:40 10° SSW 14:34:03 90° SE 14:40:19 10° NE daylight
14 Jul - 16:16:00 10° W 16:21:21 28° NNW 16:26:35 10° NNE daylight
14 Jul - 18:06:34 10° NW 18:10:02 15° N 18:13:28 10° NNE daylight
14 Jul - 19:54:50 10° NNW 19:59:05 19° NNE 20:03:15 10° ENE daylight
14 Jul - 21:41:11 10° NNW 21:47:05 50° NE 21:52:47 10° ESE visible
14 Jul - 23:27:59 10° NW 23:33:26 38° WSW 23:38:46 10° S visible
15 Jul - 12:53:48 10° SSE 12:59:05 28° ESE 13:04:18 10° NE daylight
15 Jul - 14:38:52 10° SW 14:45:12 67° NW 14:51:23 10° NNE daylight
15 Jul - 16:27:58 10° WNW 16:32:50 23° NNW 16:37:37 10° NNE daylight
15 Jul - 18:18:24 10° NNW 18:21:44 15° N 18:25:01 10° NNE daylight
15 Jul - 20:05:57 10° NNW 20:10:39 22° NNE 20:15:14 10° ENE daylight
15 Jul - 21:52:15 10° NNW 21:58:17 68° NE 22:04:08 10° SE visible
15 Jul - 23:39:28 10° NW 23:44:16 26° WSW 23:48:57 10° SSW visible
16 Jul - 13:04:04 10° S 13:09:57 41° ESE 13:15:44 10° NE daylight
16 Jul - 14:50:16 10° WSW 14:56:24 50° NW 15:02:25 10° NNE daylight
16 Jul - 16:40:02 10° WNW 16:44:24 19° NNW 16:48:42 10° NNE daylight
16 Jul - 18:30:02 10° NNW 18:33:26 15° N 18:36:48 10° NE daylight
16 Jul - 20:17:01 10° NNW 20:22:08 27° NNE 20:27:08 10° E daylight
16 Jul - 22:03:20 10° NW 22:09:24 87° SW 22:15:16 10° SSE visible
16 Jul - 23:51:18 10° WNW 23:54:59 17° WSW 23:58:37 10° SW visible
17 Jul - 11:34:11 10° ESE 11:35:38 11° E 11:37:04 10° E daylight
17 Jul - 13:14:41 10° SSW 13:20:54 58° ESE 13:27:00 10° NE daylight
17 Jul - 15:01:52 10° WSW 15:07:43 38° NW 15:13:26 10° NNE daylight
17 Jul - 16:52:07 10° NW 16:56:01 17° NNW 16:59:53 10° NNE daylight
17 Jul - 18:41:27 10° NNW 18:45:07 16° NNE 18:48:44 10° NE daylight
17 Jul - 20:28:03 10° NNW 20:33:33 34° NE 20:38:54 10° ESE daylight
17 Jul - 22:14:30 10° NW 22:20:25 62° WSW 22:26:10 10° SSE visible
